TimePDT,TemperatureF,Dew PointF,Humidity,Sea Level PressureIn,VisibilityMPH,Wind Direction,Wind SpeedMPH,Gust SpeedMPH,PrecipitationIn,Events,Conditions,WindDirDegrees,DateUTC
12:15 AM,59.0,55.4,88,29.93,10.0,SSE,8.1,-,N/A,,Overcast,150,2012-10-15 07:15:00
12:35 AM,59.0,55.4,88,29.92,10.0,SSE,9.2,-,N/A,,Overcast,150,2012-10-15 07:35:00
12:55 AM,59.0,55.4,88,29.93,9.0,SSE,6.9,-,N/A,,Overcast,150,2012-10-15 07:55:00
1:15 AM,59.0,55.4,88,29.93,9.0,South,5.8,-,N/A,,Overcast,180,2012-10-15 08:15:00
1:35 AM,59.0,55.4,88,29.94,10.0,South,8.1,-,N/A,,Overcast,180,2012-10-15 08:35:00
1:55 AM,59.0,55.4,88,29.94,7.0,South,5.8,-,0.05,,Overcast,180,2012-10-15 08:55:00
2:15 AM,59.0,55.4,88,29.94,6.0,South,4.6,-,0.01,,Overcast,170,2012-10-15 09:15:00
2:55 AM,59.0,55.4,88,29.94,10.0,SSE,4.6,-,0.02,,Overcast,150,2012-10-15 09:55:00
3:15 AM,59.0,55.4,88,29.94,10.0,South,5.8,-,N/A,,Overcast,190,2012-10-15 10:15:00
3:55 AM,57.2,55.4,94,29.94,9.0,Calm,Calm,-,N/A,,Overcast,0,2012-10-15 10:55:00
4:15 AM,57.2,55.4,94,29.94,10.0,Calm,Calm,-,N/A,,Overcast,0,2012-10-15 11:15:00
4:35 AM,57.2,55.4,94,29.95,10.0,Calm,Calm,-,N/A,,Overcast,0,2012-10-15 11:35:00
4:55 AM,57.2,55.4,94,29.95,10.0,Calm,Calm,-,N/A,,Overcast,0,2012-10-15 11:55:00
5:15 AM,57.2,55.4,94,29.95,10.0,Calm,Calm,-,N/A,,Overcast,0,2012-10-15 12:15:00
5:35 AM,57.2,53.6,88,29.95,10.0,Calm,Calm,-,N/A,,Overcast,0,2012-10-15 12:35:00
5:55 AM,57.2,53.6,88,29.95,10.0,Calm,Calm,-,N/A,,Overcast,0,2012-10-15 12:55:00
6:15 AM,55.4,53.6,94,29.96,10.0,Calm,Calm,-,N/A,,Overcast,0,2012-10-15 13:15:00
6:35 AM,55.4,53.6,94,29.97,10.0,Calm,Calm,-,N/A,,Overcast,0,2012-10-15 13:35:00
6:55 AM,55.4,53.6,94,29.97,10.0,Calm,Calm,-,N/A,,Overcast,0,2012-10-15 13:55:00
7:15 AM,55.4,53.6,94,29.97,10.0,Calm,Calm,-,N/A,,Overcast,0,2012-10-15 14:15:00
7:35 AM,55.4,53.6,94,29.97,7.0,Calm,Calm,-,N/A,,Overcast,0,2012-10-15 14:35:00
7:55 AM,55.4,53.6,94,29.96,10.0,Calm,Calm,-,N/A,,Overcast,0,2012-10-15 14:55:00
8:15 AM,57.2,53.6,88,29.97,10.0,Calm,Calm,-,N/A,,Overcast,0,2012-10-15 15:15:00
8:35 AM,57.2,53.6,88,29.97,10.0,Calm,Calm,-,N/A,,Overcast,0,2012-10-15 15:35:00
8:55 AM,57.2,55.4,94,29.97,10.0,Calm,Calm,-,N/A,,Overcast,0,2012-10-15 15:55:00
9:15 AM,57.2,55.4,94,29.97,10.0,Calm,Calm,-,N/A,,Overcast,0,2012-10-15 16:15:00
9:35 AM,60.8,55.4,82,29.96,10.0,South,5.8,-,N/A,,Overcast,170,2012-10-15 16:35:00
9:55 AM,60.8,55.4,82,29.94,10.0,SSE,5.8,-,N/A,,Overcast,150,2012-10-15 16:55:00
10:15 AM,60.8,55.4,82,29.94,10.0,South,6.9,-,N/A,,Overcast,180,2012-10-15 17:15:00
10:35 AM,60.8,55.4,82,29.93,10.0,SSE,9.2,-,N/A,,Overcast,160,2012-10-15 17:35:00
10:55 AM,60.8,55.4,82,29.93,10.0,South,8.1,-,N/A,,Mostly Cloudy,190,2012-10-15 17:55:00
11:15 AM,62.6,55.4,77,29.92,10.0,South,11.5,-,N/A,,Mostly Cloudy,170,2012-10-15 18:15:00
11:35 AM,62.6,55.4,77,29.91,10.0,South,8.1,-,N/A,,Overcast,170,2012-10-15 18:35:00
11:55 AM,60.8,57.2,88,29.89,9.0,South,6.9,-,N/A,,Overcast,180,2012-10-15 18:55:00
12:15 PM,60.8,57.2,88,29.89,10.0,South,4.6,-,N/A,,Overcast,170,2012-10-15 19:15:00
12:35 PM,62.6,57.2,82,29.88,10.0,South,5.8,-,N/A,,Overcast,190,2012-10-15 19:35:00
12:55 PM,62.6,57.2,82,29.86,10.0,SE,4.6,-,0.01,,Overcast,140,2012-10-15 19:55:00
1:15 PM,62.6,57.2,82,29.84,10.0,SE,8.1,-,0.01,,Overcast,140,2012-10-15 20:15:00
1:35 PM,62.6,57.2,82,29.83,10.0,South,4.6,-,0.02,,Overcast,170,2012-10-15 20:35:00
1:55 PM,60.8,57.2,88,29.81,10.0,SE,4.6,-,0.04,,Overcast,140,2012-10-15 20:55:00
2:15 PM,60.8,57.2,88,29.80,10.0,Calm,Calm,-,0.01,,Overcast,0,2012-10-15 21:15:00
2:35 PM,62.6,57.2,82,29.78,10.0,SSE,5.8,-,0.01,,Overcast,150,2012-10-15 21:35:00
2:55 PM,62.6,57.2,82,29.77,10.0,SSE,8.1,-,0.02,,Overcast,160,2012-10-15 21:55:00
3:15 PM,62.6,57.2,82,29.73,10.0,SSE,9.2,17.3,0.07,,Overcast,150,2012-10-15 22:15:00
3:35 PM,62.6,57.2,82,29.74,10.0,South,6.9,-,0.07,,Overcast,170,2012-10-15 22:35:00
3:55 PM,62.6,57.2,82,29.72,9.0,SSE,15.0,23.0,0.08,,Overcast,150,2012-10-15 22:55:00
4:15 PM,62.6,57.2,82,29.69,10.0,SSE,9.2,17.3,N/A,,Overcast,160,2012-10-15 23:15:00
4:35 PM,62.6,57.2,82,29.69,10.0,SSE,11.5,18.4,N/A,,Overcast,160,2012-10-15 23:35:00
4:55 PM,64.4,59.0,83,29.67,10.0,SSE,13.8,25.3,N/A,,Overcast,160,2012-10-15 23:55:00
5:15 PM,64.4,59.0,83,29.67,10.0,South,11.5,24.2,N/A,,Overcast,170,2012-10-16 00:15:00
5:35 PM,64.4,59.0,83,29.68,8.0,South,11.5,20.7,0.01,,Mostly Cloudy,170,2012-10-16 00:35:00
5:55 PM,62.6,59.0,88,29.67,5.0,SSE,13.8,21.9,0.03,,Overcast,150,2012-10-16 00:55:00
6:15 PM,62.6,59.0,88,29.68,9.0,SSE,11.5,20.7,0.01,,Overcast,160,2012-10-16 01:15:00
6:35 PM,62.6,60.8,94,29.68,9.0,SSE,10.4,-,0.01,,Mostly Cloudy,160,2012-10-16 01:35:00
6:55 PM,62.6,60.8,94,29.68,10.0,SSE,12.7,17.3,0.01,,Mostly Cloudy,160,2012-10-16 01:55:00
7:15 PM,62.6,60.8,94,29.67,10.0,SSE,5.8,-,N/A,,Overcast,150,2012-10-16 02:15:00
7:35 PM,62.6,60.8,94,29.66,10.0,SSE,8.1,-,N/A,,Overcast,150,2012-10-16 02:35:00
7:55 PM,62.6,59.0,88,29.67,7.0,South,10.4,16.1,0.09,,Overcast,170,2012-10-16 02:55:00
8:15 PM,62.6,60.8,94,29.67,10.0,SSE,10.4,18.4,0.03,,Overcast,160,2012-10-16 03:15:00
8:35 PM,62.6,60.8,94,29.67,8.0,SSE,9.2,17.3,0.07,,Overcast,160,2012-10-16 03:35:00
8:55 PM,62.6,60.8,94,29.68,8.0,South,9.2,-,0.10,,Mostly Cloudy,180,2012-10-16 03:55:00
9:15 PM,62.6,60.8,94,29.67,10.0,South,4.6,-,0.01,,Overcast,180,2012-10-16 04:15:00
9:35 PM,62.6,60.8,94,29.68,10.0,SSW,4.6,-,0.01,,Overcast,200,2012-10-16 04:35:00
9:55 PM,62.6,59.0,88,29.68,10.0,South,4.6,-,0.01,,Overcast,170,2012-10-16 04:55:00
10:15 PM,62.6,59.0,88,29.68,10.0,SSE,5.8,-,N/A,,Overcast,150,2012-10-16 05:15:00
10:35 PM,62.6,57.2,82,29.68,10.0,SE,5.8,-,N/A,,Overcast,140,2012-10-16 05:35:00
10:55 PM,62.6,59.0,88,29.68,10.0,SE,4.6,-,N/A,,Overcast,140,2012-10-16 05:55:00
11:15 PM,62.6,59.0,88,29.68,3.0,SSE,4.6,-,0.01,,Overcast,160,2012-10-16 06:15:00
11:35 PM,60.8,57.2,88,29.68,5.0,South,3.5,-,0.03,,Overcast,170,2012-10-16 06:35:00
11:55 PM,60.8,59.0,94,29.69,10.0,NNW,5.8,-,0.04,,Overcast,340,2012-10-16 06:55:00